{"data":{"norad_id":59492,"epoch":"2026-09-21T15:02:50.846496Z","epoch_age_seconds":68256,"freshness":"FRESH","line1":"1 59492U 24071J   26264.62697739  .00000633  00000+0  32542-4 0  9993","line2":"2 59492  43.0028 320.8088 0001133 219.4929 140.5841 15.27578481138082","mean_motion":15.27578481,"eccentricity":0.0001133,"inclination_deg":43.0028,"raan_deg":320.8088,"arg_perigee_deg":219.4929,"mean_anomaly_deg":140.5841,"bstar":3.2542e-5,"rev_number":13808,"period_min":94.266842451023,"perigee_km":482.27627157586,"apogee_km":483.8310173759,"semimajor_km":6861.1906444759,"source":"CELESTRAK","updated_at":"2026-09-22T09:00:48.957147Z"}}